Location: Bow
(51.5261°N, 0.0167°W)
Time: 13:18:23
(UTC+00:00)

Cosmos 1908 Rocket - Pass Details

Date: 18 September 2020
Orbit: 607 x 631 km, 82.5° (Epoch: 25 October)

Event Time Altitude Azimuth Distance (km) Brightness Sun altitude
Rises 18:45:25 0° 192° (SSW) 2,861 7.0 -6.8°
Reaches altitude 10° 18:47:37 10° 193° (SSW) 1,964 6.2 -7.1°
Maximum altitude 18:51:58 80° 280° (W) 631 3.7 -7.8°
Drops below altitude 10° 18:56:24 10° 9° (N) 1,995 6.2 -8.5°
Sets 18:58:39 0° 10° (N) 2,910 7.1 -8.8°
